Regional Weather Roundup
Issued by NWS Charleston, SC

Current Version | Previous Version | Graphics & Text | Print | Product List | Glossary On
Versions: 1 2 3 4 5 6 7 8 9 10 11 12 13 14 15 16 17 18 19 20 21 22 23 24 25 26 27 28 29 30 31 32 33 34 35 36 37 38 39 40 41 42 43 44 45 46 47 48 49 50
000
ASUS42 KCHS 291427
RWRCHS

REGIONAL WEATHER ROUNDUP
NATIONAL WEATHER SERVICE CHARLESTON SC
1000 AM EDT SAT AUG 29 2015

NOTE: "FAIR" INDICATES FEW OR NO CLOUDS BELOW 12,000 FEET WITH NO
SIGNIFICANT WEATHER AND/OR OBSTRUCTIONS TO VISIBILITY.

NOT ALL STATIONS ARE QUALITY CONTROLLED BY THE NATIONAL
WEATHER SERVICE. USE DATA WITH CAUTION...ESPECIALLY
DEWPOINT OBSERVATIONS.

SCZ027-030-031-034>040-042>050-291500-
...SOUTHEAST SOUTH CAROLINA...

CITY           SKY/WX    TMP DP  RH WIND       PRES   REMARKS
N CHARLESTON   CLOUDY    80  71  74 N9        30.17R
WATERFRONT PRK   N/A     79  74  85 N8        30.13S
MOUNT PLEASANT FAIR      79  73  83 N6        30.17R
JOHNS ISLAND   FAIR      82  73  74 NE9       30.17R
PINOPOLIS        N/A     77  70  78 NE7       30.09F
MONCKS CORNER  FAIR      79  68  69 N6        30.18S
SUMMERVILLE    FAIR      79  70  73 NE7       30.19R
BEAUFORT MCAS  CLOUDY    81  72  74 NE8       30.16R
BEAUFORT ARPT  FAIR      81  73  78 NE10      30.16R
HILTON HEAD IS PTSUNNY   81  73  78 N9        30.17R
WALTERBORO     CLOUDY    81  68  65 NE7       30.19R
ALLENDALE      FAIR      75  68  78 VRB5      30.19R

...SOUTHERN MIDLANDS AND PEE DEE...

CITY           SKY/WX    TMP DP  RH WIND       PRES   REMARKS
GEORGETOWN     NOT AVBL
KINGSTREE      NOT AVBL
ORANGEBURG     CLOUDY    76  65  68 NE8       30.20S
BARNWELL       FAIR      75  70  83 NE6       30.21R
AIKEN          FAIR      72  61  68 NE7       30.25R
MANNING        FAIR      72  63  73 N5        30.21R
COLUMBIA       CLOUDY    74  63  68 CALM      30.21S
SUMTER         CLOUDY    73  64  71 E7        30.19F HAZE
FLORENCE       CLOUDY    73  66  78 NE6       30.21R
MYRTLE BEACH   SUNNY     75  66  73 N9        30.20R
N MYRTLE BEACH PTSUNNY   77  69  76 NE8       30.18R

$$

GAZ063-065-086>088-099>101-113>116-118-119-134>141-150-291500-
...SOUTHEAST GEORGIA...

CITY           SKY/WX    TMP DP  RH WIND       PRES   REMARKS
SAVANNAH ARPT  RAIN      74  71  91 N5        30.16R FOG
HUNTER AAF     LGT RAIN  75  75 100 VRB2      30.13S
FORT STEWART   CLOUDY    75  73  94 NE1       30.14R
STATESBORO     CLOUDY    75  75 100 NE3       30.18R
SYLVANIA       CLOUDY    77  73  88 E8        30.19R
CLAXTON        NOT AVBL

...CSRA...CENTRAL AND FAR SOUTHEAST GEORGIA...

CITY           SKY/WX    TMP DP  RH WIND       PRES   REMARKS
THOMSON        CLOUDY    77  70  79 NE7       30.25S
AUGUSTA-BUSH   CLOUDY    74  67  78 E3        30.19R
AUGUSTA-DANIEL CLOUDY    75  65  70 E5        30.21R
SWAINSBORO     FAIR      79  72  78 E8        30.19R
VIDALIA        LGT RAIN  77  72  83 E7        30.17R
EASTMAN        RAIN      73  73 100 SW6       30.20R
HAZLEHURST     RAIN      76  76 100 CALM      30.16R
ALMA           CLOUDY    75  74  96 CALM      30.15S
WAYCROSS       CLOUDY    82  76  83 E6        30.14S
JESUP          PTSUNNY   81  75  83 E7        30.15S
BAXLEY         PTSUNNY   79  73  83 E6        30.14F
BRUNSWICK      CLOUDY    73  72  94 NE6       30.15S
SAINT SIMONS   CLOUDY    75  73  93 N5        30.14R

$$

SCZ027-028-034-036>038-045-046-048>050-GAZ119-141-291500-
...LAKE AND SUPPLEMENTAL COASTAL OBSERVATIONS...

STATION/POSITION TIME  TEMP    WIND        PRES    WAVE   SWELL
                       AIR SEA DIR/SP/G            HT/PER HT/PER/DIR
                 (UTC) (F)     (DEG/KT/KT) (MB)    (FT/S) (FT/S/D)
UPR LAKE MARION  NOT AVBL
WINYAH BAY       1300   74      10/  6     1020.0
LAKE MURRAY      1300   70      30/  2/  5 1022.7R
ACE BASIN NERRS  NOT AVBL
FORT PULASKI     NOT AVBL
SAPELO ISLAND    1400   74      40/  8     1021.0R

$$

ANZ835-935-AMZ111-154-330-350-352-354-370-450-454-472-291500-
...C-MAN AND BUOY OBSERVATIONS...

STATION/POSITION TIME  TEMP    WIND        PRES    WAVE   SWELL
                       AIR SEA DIR/SP/G            HT/PER HT/PER/DIR
                 (UTC) (F)     (DEG/KT/KT) (MB)    (FT/S) (FT/S/D)
BUOY 41004       1350   81 85   60/ 12/ 17 1020.3R   4/ 5   3/ 6
BUOY 41008       1350   82 85  120/  4/  6 1020.4R   3/ 6   3/ 60/ 6
FOLLY BEACH CMAN 1400   79      20/ 10/ 13 1021.4R
CAPERS NEARSHORE 1308   79      40/ 14/ 16 1021.1R
FRIPP NEARSHORE  1300   81      50/ 16/ 17 1020.1F


STATION/POSITION TIME  TEMP    WIND        PRES    WAVE   SWELL
                       AIR SEA DIR/SP/G            HT/PER HT/PER/DIR
                 (UTC) (F)     (DEG/KT/KT) (MB)    (FT/S) (FT/S/D)
5E ST. MARYS GA  1321      86                N/A     3/ 6   2/100/13
FRYING PAN BUOY  1350   81 81   40/ 16/ 17 1020.9R   4/ 6   2/110/ 8
BUOY 41025       1350   78 82   50/ 14/ 16 1020.8R   5/10   3/110/10
CAPE LOOKOUT NC  1400   78      30/ 19/ 21 1020.8S
BUOY 41002       1350   83 83  200/ 12/ 16 1020.6R   5/11   5/110/11
BUOY 41010       1320   84 85  110/ 10/ 10 1019.2R
ST AUGUSTINE FL  1400   79 85  320/  3/  4 1020.7R


$$


USA.gov is the U.S. government's official web portal to all federal, state and local government web resources and services.